FENGYUN 1C DEB, 33658

Orbit data source: Space-Track

FENGYUN 1C DEB, 33658 is space debris in SSO originally from a launch on Mon, 10 May 1999 UTC launched from the Taiyaun Space Center, China (TSC). Fengyun 1C debris stems from the Chinese weather satellite Fengyun-1C, which was intentionally destroyed by a Chinese anti-satellite missile in 2007. This event dramatically increased the amount of space debris, with thousands of trackable fragments posing hazards to satellites and human spaceflight. The Fengyun 1C debris cloud has become a focal point in discussions about space sustainability and the need for international regulations to prevent the creation of new debris.

Loading next visibility...
Identifier
33658, 1999-025DET
Orbit
SSO
Country
Flag of CNCN / PRC
Related business
Manufacturer
Unknown
Mission
Spacecraft
Bus & Motor
Unknown
Mass
Unknown
Launch date (UTC)
1999-05-10 (27 years ago)
Launch vehicle
Unknown
Launch site
Taiyaun Space Center, China (TSC)
Object type
Payload
Rocket body
Debris
Shape & HBR
Unknown shape, 0.1 m
Radar Cross Section
Small (<0.1 m²)

Expand to show TLE details & history
Last TLE update: 1 day ago

TLE from 1 day ago
0 FENGYUN 1C DEB
1 33658U 99025DET 26103.68797220  .00001793  00000-0  17991-2 0  9992
2 33658  99.5671 259.7832 0281259 228.8394 128.8175 13.62993484598006
Epoch: 2026-04-13T16:30Z
TLE epoch observation values (Epoch: 2026-04-13T16:30:40.798Z)
Latitude
0.00006°
Longitude
170.23821°
Altitude
1,161.646 km
Speed
7.206 km/s
True Right ascension
17h 19m 07s
True Declination
0° 00' 00"
Sunlit
Object was in daylight at epoch
Visualization orbit readout
Latitude
Unknown
Longitude
Unknown
Altitude
Unknown
Speed
Unknown
Apparent Right ascension
Unknown
Apparent Declination
Unknown
Sunlit
N/A
Visualization observer readout
Local Sidereal Time
10:26:27
Azimuth
Unknown
Elevation
Unknown
Doppler factor
Unknown
Orbital elements
Apogee altitude
1,230.245 km
Perigee altitude
813.968 km
Semi-major axis
7,400.244 km
Eccentricity
0.02813
Inclination
99.5671°
RAAN
259.7832°
Arg. of periapsis
228.8394°
True anomaly
131.27374°
Mean anomaly
128.8175°
Eccentric anomaly
130.05105°
Mean motion
3.40937 °/min
Orbital period
105.59 mins
BSTAR
0.0017991
Loading maneuver chart data...
Computing Atmospheric mass density...

Documentation

Showing up to 5 results
|